Location: Czekanka
(50.4925°N, 19.2643°E)
Time: 00:25:48
(UTC+00:00)

ADEOS II - Pass Details

Date: 20 September 2024
Orbit: 795 x 798 km, 98.7° (Epoch: 09 October)

Event Time Altitude Azimuth Distance (km) Brightness Sun altitude
Rises 00:57:10 0° 17° (NNE) 3,311 6.2 -30.5°
Reaches altitude 10° 00:59:33 10° 22° (NNE) 2,377 5.3 -30.2°
Enters shadow 01:04:34 58° 93° (E) 925 2.5 -29.7°
